Flag for Australia Weather past 2 weeks in Alice Springs, Northern Territory, Australia

Now
68 °F

Clear.


Feels Like: 68 °F
Forecast: 67 / 88 °F
Wind: 7 mph from Southeast

Location: Alice Springs Aerodrome

Current Time: Mar 6, 2015 at 4:55:55 AM

Latest Report: Mar 6, 2015 at 4:30 AM


Visibility: N/A

Pressure: 30.04 "Hg

Humidity: 38%

Dew point: 41 °F

Location of Alice SpringsLocation

Historic Weather in Alice Springs — Graph

°F

Alice Springs temperature yesterday

Maximum temperature yesterday: 93 °F (at 2:30 PM)
Minimum temperature yesterday: 79 °F (at 5:00 AM)
Average temperature yesterday: 86 °F

Past Weeks' High & Low Weather Summary

 TemperatureHumidityPressure
High104 °F (Feb 28, 1:30 PM)78% (Feb 23, 5:30 AM)30.09 "Hg (Feb 23, 5:30 AM)
Low66 °F (Feb 21, 6:00 AM)9% (Feb 28, 11:00 AM)29.68 "Hg (Feb 27, 4:30 PM)
Average87 °F29%29.86 "Hg
* Reported Feb 19 3:30 AM — Mar 6 3:30 AM, Alice Springs, Weather by CustomWeather, © 2015

Note: Actual official high and low records may vary slightly from our data, if they occured in-between our weather recording intervals... More about our weather records

Advertising

Alice Springs weather history for previous 24 hours

 ConditionsComfort  
Time TempWeatherWind HumidityBarometerVisibility
3:30 AM
Fri, Mar 6
68 °FClear.7 mph38%30.04 "HgN/A
3:00 AM70 °FClear.6 mph35%30.04 "HgN/A
2:30 AM73 °FClear.8 mph29%30.04 "HgN/A
2:00 AM75 °FClear.9 mph25%30.04 "HgN/A
1:30 AM73 °FClear.9 mph29%30.04 "HgN/A
1:00 AM73 °FClear.7 mph31%30.04 "HgN/A
12:30 AM75 °FClear.6 mph29%30.07 "HgN/A
11:30 PM
Thu, Mar 5
79 °FClear.10 mph24%30.07 "HgN/A
10:30 PM82 °FClear.13 mph21%30.04 "HgN/A
10:00 PM82 °FClear.10 mph23%30.04 "HgN/A
9:30 PM82 °FClear.10 mph23%30.04 "HgN/A
9:00 PM82 °FClear.10 mph23%30.04 "HgN/A
8:30 PM84 °FClear.10 mph22%30.01 "HgN/A
8:00 PM86 °FClear.10 mph20%30.01 "HgN/A
7:30 PM86 °FClear.12 mph19%30.01 "HgN/A
6:30 PM90 °FClear.16 mph17%29.98 "HgN/A
6:00 PM91 °FSunny.16 mph16%29.95 "HgN/A
5:30 PM91 °FSunny.15 mph16%29.95 "HgN/A
5:00 PM93 °FSunny.15 mph16%29.95 "HgN/A
4:30 PM93 °FSunny.12 mph16%29.95 "HgN/A
4:00 PM93 °FSunny.15 mph16%29.95 "HgN/A
3:30 PM93 °FSunny.15 mph15%29.95 "HgN/A
3:00 PM93 °FSunny.17 mph15%29.98 "HgN/A
2:30 PM93 °FSunny.17 mph16%29.98 "HgN/A
1:30 PM90 °FSunny.15 mph20%30.01 "HgN/A
12:30 PM90 °FSunny.20 mph21%30.04 "HgN/A
11:34 AM88 °FSunny.18 mph24%30.07 "HgN/A
11:00 AM86 °FSunny.20 mph25%30.07 "HgN/A
10:30 AM86 °FSunny.18 mph25%30.09 "HgN/A
10:00 AM84 °FSunny.17 mph31%30.09 "HgN/A
9:30 AM84 °FSunny.18 mph31%30.09 "HgN/A
9:00 AM82 °FSunny.17 mph35%30.09 "HgN/A
8:30 AM81 °FSunny.17 mph37%30.09 "HgN/A
8:00 AM81 °FSunny.18 mph37%30.09 "HgN/A
7:30 AM79 °FSunny.14 mph37%30.07 "HgN/A
6:30 AM79 °FSunny.9 mph34%30.04 "HgN/A
6:00 AM81 °FClear.15 mph32%30.04 "HgN/A
5:30 AM79 °FClear.8 mph32%30.01 "HgN/A
5:00 AM79 °FClear.8 mph30%30.01 "HgN/A
4:30 AM82 °FClear.12 mph26%30.01 "HgN/A
4:00 AM82 °FClear.13 mph25%29.98 "HgN/A
Weather by CustomWeather, © 2015

See weather overviewHow to use our weather pages